When you browse on this site, cookies collect data to enhance your experience and personalize the content and advertising you see.
Visit our Privacy Policy to learn more. By continuing to use the site, you agree to this use of cookies and data.

Hourly Weather Ceska Lipa

Today, 9 July, Thursday

Time Temperature Precipitation Wind Pressure Humidity
00:00 +11°C° 0 mm 0 mps 738 mmHg 97%
01:00 +12°C° 0 mm 1 mps 737 mmHg 97%
02:00 +12°C° 0 mm 1 mps 737 mmHg 97%
03:00 +12°C° 0 mm 1 mps 737 mmHg 97%
04:00 +12°C° 0 mm 1 mps 737 mmHg 97%
05:00 +13°C° 0 mm 1 mps 737 mmHg 96%
06:00 +14°C° 0 mm 2 mps 737 mmHg 94%
07:00 +14°C° 0 mm 2 mps 737 mmHg 92%
08:00 +15°C° 0 mm 2 mps 737 mmHg 90%
09:00 +16°C° 0 mm 3 mps 737 mmHg 88%
10:00 +17°C° 0 mm 3 mps 737 mmHg 86%
11:00 +17°C° 0 mm 3 mps 737 mmHg 84%
12:00 +18°C° 0 mm 3 mps 736 mmHg 82%
13:00 +19°C° 0 mm 4 mps 736 mmHg 80%
14:00 +20°C° 0 mm 4 mps 736 mmHg 78%
15:00 +21°C° 0 mm 4 mps 735 mmHg 75%
16:00 +22°C° 0 mm 4 mps 735 mmHg 72%
17:00 +21°C° 0.1 mm 3 mps 735 mmHg 76%
18:00 +21°C° 0.1 mm 2 mps 734 mmHg 80%
19:00 +22°C° 0.1 mm 1 mps 734 mmHg 83%
20:00 +20°C° 0.4 mm 1 mps 734 mmHg 87%
21:00 +19°C° 0.4 mm 1 mps 734 mmHg 91%
22:00 +18°C° 0.4 mm 1 mps 735 mmHg 94%
23:00 +18°C° 0.2 mm 1 mps 734 mmHg 95%

Tomorrow, 10 July, Friday

Time Temperature Precipitation Wind Pressure Humidity
00:00 +16°C° 0.2 mm 1 mps 734 mmHg 95%
01:00 +16°C° 0.2 mm 1 mps 734 mmHg 96%
02:00 +16°C° 0 mm 1 mps 734 mmHg 96%
03:00 +16°C° 0 mm 1 mps 734 mmHg 96%
04:00 +16°C° 0 mm 1 mps 733 mmHg 96%
05:00 +17°C° 0 mm 2 mps 733 mmHg 94%
06:00 +18°C° 0 mm 2 mps 734 mmHg 92%
07:00 +19°C° 0 mm 2 mps 734 mmHg 89%
08:00 +21°C° 0.1 mm 3 mps 734 mmHg 81%
09:00 +23°C° 0.1 mm 4 mps 734 mmHg 73%
10:00 +26°C° 0.1 mm 4 mps 734 mmHg 64%
11:00 +26°C° 0.4 mm 5 mps 733 mmHg 63%
12:00 +27°C° 0.4 mm 5 mps 733 mmHg 62%
13:00 +28°C° 0.4 mm 5 mps 733 mmHg 61%
14:00 +28°C° 0.4 mm 5 mps 733 mmHg 62%
15:00 +28°C° 0.4 mm 4 mps 733 mmHg 63%
16:00 +28°C° 0.4 mm 4 mps 732 mmHg 64%
17:00 +26°C° 0.4 mm 4 mps 732 mmHg 71%
18:00 +24°C° 0.4 mm 3 mps 732 mmHg 78%
19:00 +21°C° 0.4 mm 3 mps 732 mmHg 85%
20:00 +20°C° 0 mm 3 mps 733 mmHg 88%
21:00 +18°C° 0 mm 3 mps 734 mmHg 91%
22:00 +17°C° 0 mm 2 mps 735 mmHg 94%
23:00 +17°C° 0 mm 2 mps 735 mmHg 94%

Day after tomorrow, 11 July, Saturday

Time Temperature Precipitation Wind Pressure Humidity
00:00 +16°C° 0 mm 3 mps 736 mmHg 93%
01:00 +16°C° 0 mm 3 mps 736 mmHg 93%
02:00 +14°C° 0 mm 3 mps 736 mmHg 93%
03:00 +14°C° 0 mm 3 mps 737 mmHg 92%
04:00 +13°C° 0 mm 3 mps 737 mmHg 92%
05:00 +13°C° 0 mm 3 mps 738 mmHg 90%
06:00 +13°C° 0 mm 3 mps 738 mmHg 88%
07:00 +13°C° 0 mm 3 mps 739 mmHg 86%
08:00 +14°C° 0 mm 4 mps 739 mmHg 82%
09:00 +14°C° 0 mm 4 mps 740 mmHg 77%
10:00 +15°C° 0 mm 4 mps 740 mmHg 73%
11:00 +17°C° 0 mm 4 mps 740 mmHg 66%
12:00 +18°C° 0 mm 4 mps 741 mmHg 60%
13:00 +19°C° 0 mm 3 mps 741 mmHg 54%
14:00 +19°C° 0 mm 3 mps 741 mmHg 53%
15:00 +19°C° 0 mm 3 mps 741 mmHg 51%
16:00 +19°C° 0 mm 3 mps 741 mmHg 50%
17:00 +18°C° 0 mm 3 mps 741 mmHg 56%
18:00 +17°C° 0 mm 2 mps 741 mmHg 62%
19:00 +16°C° 0 mm 2 mps 741 mmHg 68%
20:00 +15°C° 0 mm 2 mps 741 mmHg 71%
21:00 +14°C° 0 mm 1 mps 742 mmHg 75%
22:00 +12°C° 0 mm 1 mps 742 mmHg 78%
23:00 +12°C° 0 mm 1 mps 742 mmHg 81%

12 July, Sunday

Time Temperature Precipitation Wind Pressure Humidity
00:00 +12°C° 0 mm 1 mps 743 mmHg 84%
01:00 +11°C° 0 mm 1 mps 743 mmHg 87%
02:00 +11°C° 0 mm 1 mps 743 mmHg 89%
03:00 +10°C° 0 mm 1 mps 743 mmHg 91%
04:00 +10°C° 0 mm 1 mps 743 mmHg 93%
05:00 +10°C° 0 mm 2 mps 743 mmHg 88%
06:00 +13°C° 0 mm 2 mps 743 mmHg 82%
07:00 +14°C° 0 mm 2 mps 744 mmHg 76%
08:00 +14°C° 0 mm 3 mps 744 mmHg 70%
09:00 +17°C° 0 mm 3 mps 744 mmHg 64%
10:00 +18°C° 0 mm 4 mps 744 mmHg 58%
11:00 +19°C° 0 mm 4 mps 744 mmHg 55%
12:00 +19°C° 0 mm 4 mps 744 mmHg 52%
13:00 +20°C° 0 mm 4 mps 744 mmHg 49%
14:00 +20°C° 0 mm 4 mps 744 mmHg 49%
15:00 +20°C° 0 mm 4 mps 743 mmHg 48%
16:00 +20°C° 0 mm 4 mps 743 mmHg 48%
17:00 +19°C° 0 mm 3 mps 743 mmHg 54%
18:00 +18°C° 0 mm 3 mps 743 mmHg 60%
19:00 +17°C° 0 mm 2 mps 743 mmHg 66%
20:00 +15°C° 0 mm 2 mps 743 mmHg 70%
21:00 +14°C° 0 mm 2 mps 744 mmHg 74%
22:00 +12°C° 0 mm 1 mps 744 mmHg 78%
23:00 +11°C° 0 mm 1 mps 744 mmHg 80%

13 July, Monday

Time Temperature Precipitation Wind Pressure Humidity
00:00 +11°C° 0 mm 1 mps 743 mmHg 82%
01:00 +11°C° 0 mm 1 mps 743 mmHg 84%
02:00 +10°C° 0 mm 1 mps 743 mmHg 86%
03:00 +10°C° 0 mm 1 mps 743 mmHg 88%
04:00 +10°C° 0 mm 1 mps 743 mmHg 89%
05:00 +11°C° 0 mm 1 mps 743 mmHg 84%
06:00 +13°C° 0 mm 1 mps 743 mmHg 78%
07:00 +15°C° 0 mm 1 mps 743 mmHg 72%
08:00 +16°C° 0 mm 2 mps 743 mmHg 68%
09:00 +18°C° 0 mm 2 mps 743 mmHg 64%
10:00 +19°C° 0 mm 3 mps 743 mmHg 59%
11:00 +19°C° 0.1 mm 3 mps 743 mmHg 58%
12:00 +20°C° 0.1 mm 3 mps 742 mmHg 56%
13:00 +21°C° 0.1 mm 4 mps 742 mmHg 54%
14:00 +21°C° 0.1 mm 4 mps 741 mmHg 54%
15:00 +21°C° 0.1 mm 4 mps 741 mmHg 54%
16:00 +21°C° 0.1 mm 4 mps 741 mmHg 53%
17:00 +20°C° 0 mm 3 mps 741 mmHg 59%
18:00 +19°C° 0 mm 3 mps 740 mmHg 65%
19:00 +18°C° 0 mm 2 mps 740 mmHg 70%
20:00 +16°C° 0 mm 2 mps 740 mmHg 75%
21:00 +15°C° 0 mm 1 mps 740 mmHg 79%
22:00 +13°C° 0 mm 1 mps 740 mmHg 83%
23:00 +13°C° 0 mm 1 mps 740 mmHg 85%

14 July, Tuesday

Time Temperature Precipitation Wind Pressure Humidity
00:00 +12°C° 0 mm 1 mps 740 mmHg 87%
01:00 +12°C° 0 mm 1 mps 740 mmHg 89%
02:00 +11°C° 0 mm 1 mps 740 mmHg 90%
03:00 +10°C° 0 mm 0 mps 739 mmHg 90%
04:00 +10°C° 0 mm 0 mps 739 mmHg 91%
05:00 +12°C° 0 mm 0 mps 739 mmHg 85%
06:00 +14°C° 0 mm 0 mps 740 mmHg 79%
07:00 +16°C° 0 mm 0 mps 740 mmHg 73%
08:00 +19°C° 0 mm 1 mps 740 mmHg 66%
09:00 +20°C° 0 mm 1 mps 739 mmHg 59%
10:00 +21°C° 0 mm 2 mps 739 mmHg 52%
11:00 +21°C° 0 mm 2 mps 739 mmHg 50%
12:00 +23°C° 0 mm 2 mps 739 mmHg 48%
13:00 +24°C° 0 mm 2 mps 739 mmHg 45%
14:00 +24°C° 0 mm 2 mps 738 mmHg 46%
15:00 +24°C° 0 mm 2 mps 738 mmHg 47%
16:00 +23°C° 0 mm 2 mps 738 mmHg 48%
17:00 +21°C° 0 mm 2 mps 738 mmHg 53%
18:00 +21°C° 0 mm 1 mps 737 mmHg 59%
19:00 +20°C° 0 mm 1 mps 737 mmHg 65%
20:00 +19°C° 0 mm 1 mps 737 mmHg 67%
21:00 +18°C° 0 mm 1 mps 737 mmHg 68%
22:00 +14°C° 0 mm 0 mps 737 mmHg 70%
23:00 +14°C° 0 mm 0 mps 737 mmHg 73%
Show more